Hill City, KS

2:11 AM CST on January 17, 2017 (GMT -0600)
Hill City Municipal

Weather History for KHLC - April, 2013

Change the Weather History Date:

Thursday, April 25, 2013

  Actual Average Record
Temperature  
Mean Temperature 49 °F 55 °F  
Max Temperature 73 °F 69 °F 92 °F (1954)
Min Temperature 25 °F 41 °F 20 °F (1907)
Degree Days  
Heating Degree Days 16    
Moisture  
Dew Point 24 °F    
Average Humidity 46    
Maximum Humidity 92    
Minimum Humidity 13    
Precipitation  
Precipitation 0.00 in 0.09 in 0.65 in (2011)
Month to date precipitation 0.24 1.70  
Year to date precipitation 2.22 4.30  
Sea Level Pressure  
Sea Level Pressure 30.13 in    
Wind  
Wind Speed 7 mph (South)    
Max Wind Speed 29 mph    
Max Gust Speed 40 mph    
Visibility 10 miles    
Events      
T = Trace of Precipitation, MM = Missing Value Source: NWS Daily Summary

Daily Weather History Graph

Daily Weather History Graph

Search for Another Location

Airport or City:

Trip Planner

Search our weather history database for the weather conditions in past years. The results will help you decide how hot, cold, wet, or windy it might be!

Date:

Astronomy

Apr. 25, 2013 Rise Set
Actual Time 6:47 AM CDT 8:27 PM CDT
Civil Twilight 6:19 AM CDT 8:55 PM CDT
Nautical Twilight 5:44 AM CDT 9:30 PM CDT
Astronomical Twilight 5:08 AM CDT 10:07 PM CDT
Moon 8:42 PM CDT (4/25) 6:32 AM CDT (4/25)
Length of Visible Light 14h 36m
Length of Day
13h 39m
Full, 100% of the Moon is Illuminated
Apr 25
Full
Apr 25
Full
May 2
Last Quarter
May 9
New
May 17
First Quarter

Hourly Weather History & Observations

Time (CDT) Temp. Windchill Dew Point Humidity Pressure Visibility Wind Dir Wind Speed Gust Speed Precip Events Conditions
12:53 AM 35.1 °F - 26.1 °F 70% 30.27 in 10.0 mi Calm Calm - N/A   Clear
1:53 AM 28.9 °F 25.2 °F 24.1 °F 82% 30.27 in 10.0 mi North 3.5 mph - N/A   Clear
2:53 AM 27.0 °F 23.0 °F 23.0 °F 85% 30.27 in 10.0 mi NW 3.5 mph - N/A   Clear
3:53 AM 28.0 °F - 24.1 °F 85% 30.27 in 10.0 mi Calm Calm - N/A   Clear
4:53 AM 26.1 °F - 23.0 °F 88% 30.26 in 10.0 mi Calm Calm - N/A   Clear
5:53 AM 27.0 °F - 24.1 °F 89% 30.26 in 10.0 mi Calm Calm - N/A   Clear
6:53 AM 25.0 °F - 23.0 °F 92% 30.25 in 10.0 mi Calm Calm - N/A   Clear
7:53 AM 36.0 °F - 28.9 °F 76% 30.23 in 10.0 mi Calm Calm - N/A   Clear
8:53 AM 42.1 °F 40.2 °F 30.9 °F 65% 30.23 in 10.0 mi South 3.5 mph - N/A   Clear
9:53 AM 55.9 °F - 28.0 °F 34% 30.21 in 10.0 mi SSW 10.4 mph - N/A   Clear
10:53 AM 61.0 °F - 28.0 °F 29% 30.18 in - SW 17.3 mph 28.8 mph N/A   Clear
11:53 AM 64.9 °F - 28.0 °F 25% 30.16 in 10.0 mi SSW 21.9 mph 29.9 mph N/A   Unknown
12:53 PM 69.1 °F - 27.0 °F 21% 30.13 in 10.0 mi SSW 26.5 mph 35.7 mph N/A   Clear
1:53 PM 72.0 °F - 23.0 °F 16% 30.09 in 10.0 mi SSW 28.8 mph 39.1 mph N/A   Clear
2:53 PM 73.0 °F - 19.0 °F 13% 30.06 in 10.0 mi SSW 18.4 mph 40.3 mph N/A   Clear
3:53 PM 71.1 °F - 21.9 °F 16% 30.03 in 10.0 mi South 23.0 mph 38.0 mph N/A   Clear
4:53 PM 69.1 °F - 19.9 °F 15% 30.01 in 10.0 mi SSW 21.9 mph 36.8 mph N/A   Clear
5:53 PM 66.0 °F - 18.0 °F 16% 30.00 in 10.0 mi South 19.6 mph 34.5 mph N/A   Clear
6:53 PM 66.0 °F - 19.9 °F 17% 29.99 in 10.0 mi South 18.4 mph 28.8 mph N/A   Clear
7:53 PM 62.1 °F - 21.0 °F 21% 29.97 in 10.0 mi South 13.8 mph - N/A   Clear
8:53 PM 55.0 °F - 23.0 °F 29% 29.99 in 10.0 mi ESE 4.6 mph - N/A   Clear
9:53 PM 52.0 °F - 25.0 °F 35% 30.00 in 10.0 mi SE 4.6 mph - N/A   Clear
10:53 PM 50.0 °F - 27.0 °F 41% 30.01 in 10.0 mi SE 6.9 mph - N/A   Clear
11:53 PM 53.1 °F - 27.0 °F 37% 30.02 in 10.0 mi South 6.9 mph - N/A   Clear